This demonstration page uses our WeatherBlox Daily Observations layout. Learn more.

Left ArrowRight Arrow

38.80484, -77.04692

Hourly Observations for October 23, 2021

Temp ( °F °C ) Dew Point ( °F °C ) Humidity (%) Winds ( mph kmh ) Pressure ( in mb ) Visibility ( mi km ) Precip ( " mm )
12:52 am 00:52 Partly Cloudy 57 13.9 49 9.4 74 74 NNW 5 7 29.96 1015 10 16 N/A
1:52 am 01:52 Partly Cloudy 56 13.3 49 9.4 77 77 N 6 9 29.94 1014 10 16 N/A
2:52 am 02:52 Cloudy 58 14.4 49 9.4 72 72 NNW 6 9 29.95 1014 10 16 N/A
3:52 am 03:52 Cloudy 58 14.4 48 8.9 70 70 NNW 7 11 29.94 1014 10 16 N/A
4:52 am 04:52 Cloudy 59 15 49 9.4 69 69 N 3 6 29.96 1015 10 16 N/A
5:52 am 05:52 Cloudy 60 15.6 49 9.4 67 67 N 8 13 29.98 1015 10 16 N/A
6:52 am 06:52 Cloudy 60 15.6 48 8.9 65 65 N 6 9 29.97 1015 10 16 N/A
7:52 am 07:52 Cloudy with Light Rain 60 15.6 49 9.4 67 67 NNW 7 11 29.99 1016 10 16 0.00 0.00
8:28 am 08:28 Cloudy 59 15 49 9.4 69 69 NNW 5 7 30.00 1016 10 16 0.00 0.00
8:52 am 08:52 Cloudy with Light Rain 60 15.6 49 9.4 67 67 N 6 9 30.01 1016 10 16 0.00 0.00
9:52 am 09:52 Cloudy 61 16.1 49 9.4 65 65 ENE 3 6 30.02 1017 10 16 0.00 0.00
10:52 am 10:52 Cloudy 61 16.1 49 9.4 65 65 N N/A 30.02 1017 10 16 N/A
11:52 am 11:52 Cloudy 62 16.7 50 10 65 65 S 6 9 30.02 1017 10 16 N/A
12:52 pm 12:52 Partly Cloudy 65 18.3 51 10.6 61 61 S 9 15 29.98 1015 10 16 N/A
1:52 pm 13:52 Mostly Cloudy 66 18.9 49 9.4 54 54 S 6 9 29.97 1015 10 16 N/A
2:52 pm 14:52 Mostly Cloudy 68 20 49 9.4 51 51 SW 9 15 29.96 1014 10 16 N/A
3:52 pm 15:52 Cloudy with Light Rain 66 18.9 47 8.3 50 50 WSW 12 19 29.97 1015 10 16 0.00 0.00
4:52 pm 16:52 Mostly Cloudy 68 20 46 7.8 45 45 W 12 19 29.95 1014 10 16 0.00 0.00
5:52 pm 17:52 Partly Cloudy 66 18.9 41 5 40 40 WNW 12 19 29.99 1016 10 16 N/A
6:52 pm 18:52 Mostly Cloudy 63 17.2 42 5.6 47 47 NNW 6 9 30.01 1016 10 16 N/A
7:52 pm 19:52 Mostly Cloudy 60 15.6 44 6.7 56 56 N 6 9 30.04 1017 10 16 N/A
8:52 pm 20:52 Mostly Cloudy 60 15.6 44 6.7 56 56 NW 7 11 30.05 1018 10 16 N/A
9:52 pm 21:52 Mostly Cloudy 58 14.4 44 6.7 60 60 NNW 5 7 30.06 1018 10 16 N/A
10:52 pm 22:52 Partly Cloudy 55 12.8 46 7.8 72 72 NNW 7 11 30.09 1019 10 16 N/A
11:52 pm 23:52 Mostly Cloudy 55 12.8 46 7.8 72 72 NNW 7 11 30.08 1019 10 16 N/A

Powered by AerisWeather